Showing default

YINHE-1, 45024

Orbit data source: Space-Track

YINHE-1, 45024 is a payload satellite owned by Yinhe (CN) in LEO that was launched on Thu, 16 Jan 2020 UTC via a KUAIZHOU-1A launch vehicle from the Jiuquan Satellite Launch Center, China (JSC). Payload-class satellites include a variety of spacecraft equipped with specific instruments for various scientific and technological missions. These include communications satellites like Starlink; space stations such as the ISS; scientific satellites like the Hubble; Earth observation satellites from companies like Planet Labs, Umbra, and HawkEye 360; GPS; miniature CubeSats for education and research; and military/defense satellites.

Loading next visibility...
Identifier
45024, 2020-004A
Orbit
LEO
Last TLE update
8 hours ago
Origin
Manufacturer
Yinhe
Mission
Operational Commercial Communications
Bus & Motor
YH, Unknown motor
Mass
227 kg wet, ~200 kg dry
Launch date (UTC)
2020-01-16 (5 years ago)
Launch vehicle
KUAIZHOU-1A
Launch site
Jiuquan Satellite Launch Center, China (JSC)
Object type
Payload
Rocket body
Debris
Shape & HBR
Box + 1 Pan, Unknown HBR
Radar Cross Section
3.313 m², Large (>1 m²)

Expand to show TLE details & history

TLE from 8 hours ago
0 YINHE-1
1 45024U 20004A   25191.76615567  .00000441  00000-0  56708-4 0  9991
2 45024  86.3929 268.8346 0015905 113.1050 247.1849 14.78504274295487
Epoch: 2025-07-10T18:23Z
TLE epoch observation values (Epoch: 2025-07-10T18:23:15.849Z)
Latitude
-0.00001°
Longitude
64.09083°
Altitude
641.504 km
Speed
7.535 km/s
True Right ascension
17h 55m 20s
True Declination
0° 00' 00"
Sunlit
Object was in full shadow at epoch
Visualization orbit readout
Latitude
26.14522°
Longitude
65.70029°
Altitude
636.558 km
Speed
7.543 km/s
Apparent Right ascension
21h 23m 35s
Apparent Declination
-12° 07' 48"
Sunlit
Object is in full shadow
Visualization observer readout
Local Sidereal Time
14:54:12
Azimuth
94.773° ESE
Elevation
-13.338°
Doppler factor
1
Orbital elements
Apogee altitude
642.1 km
Perigee altitude
619.804 km
Semi-major axis
7,009.089 km
Eccentricity
0.00159
Inclination
86.3929°
RAAN
268.8346°
Arg. of periapsis
113.105°
True anomaly
Unknown
Mean anomaly
247.1849°
Eccentric anomaly
Unknown
Mean motion
3.69871 °/min
Orbital period
97.33 mins
BSTAR
0.000056708
Loading maneuver chart data...
Loading SW <> Apogee altitude chart data...
Loading historical data...
Loading historical data...
Loading historical data...
Loading historical data...
Loading historical data...
Loading historical data...
Loading historical data...
Other satellites on launch #4 in the year 2020 (2020-01-16 UTC)

YINHE-1 Visibility forecast

Observer location: undefined°, undefined°

Span
Click to sort rows by Start time (UTC) header in descending order
Start Az.
Max El. time (UTC)
Max El. Az.
Max El.
End time (UTC)
End Az.
8 mins2025-07-11 05:52:37.093Z187.743° SSW2025-07-11 05:56:37.093Z314.718° NW43.393°2025-07-11 06:00:37.093Z358.99° N
7 mins2025-07-11 17:42:37.093Z339.213° N2025-07-11 17:45:37.093Z266.028° W36.656°2025-07-11 17:49:37.093Z198.316° SSW
|